Regional Weather Roundup
Issued by NWS

Home | Current Version | Previous Version | Graphics & Text | Print | Product List | Glossary On
Versions: 1 2 3 4 5 6 7 8 9 10 11 12 13 14 15 16 17 18 19 20 21 22 23 24 25 26 27 28 29 30 31 32 33 34 35 36 37 38 39 40 41 42 43 44 45 46 47 48 49 50
136
ASUS43 KMPX 251810
RWRMN
WEATHER ROUNDUP FOR MINNESOTA
NATIONAL WEATHER SERVICE TWIN CITIES/CHANHASSEN MN
100 PM CDT TUE JUL 25 2017


NOTE: "FAIR" INDICATES FEW OR NO CLOUDS BELOW 12,000 FEET WITH NO
SIGNIFICANT WEATHER AND/OR OBSTRUCTIONS TO VISIBILITY. N/A MEANS
CURRENT SKY AND/OR WEATHER CONDITIONS ARE NOT AVAILABLE.

MNZ060>063-068>070-251900-
   Twin Cities Metro

CITY           SKY/WX    TMP DP  RH WIND       PRES   REMARKS
TWIN CITIES    CLOUDY    78  64  61 S21G28    29.98F
6HR MIN TEMP:  68; 6HR MAX TEMP:  79; 6HR PCP: TRACE;

ST PAUL        MOSUNNY   81  66  60 S23G33    29.98S
CRYSTAL        CLOUDY    79  63  57 S18G26    29.95F
BLAINE         PTSUNNY   82  64  54 S21G29    29.96F
LAKEVILLE      CLOUDY    75  66  73 S13G21    29.99F
EDEN PRAIRIE   MOSUNNY   79  67  66 S20G28    29.96F
6HR MIN TEMP:  67; 6HR MAX TEMP:  79; 6HR PCP: TRACE;

SOUTH ST PAUL  MOSUNNY   81  64  54 S13G26    29.98S
LAKE ELMO      PTSUNNY   79  68  69 S14G23    30.00S
$$
MNZ001>005-007-008-013>017-022>024-027-028-251900-
   Northwest Minnesota

CITY           SKY/WX    TMP DP  RH WIND       PRES   REMARKS
BEMIDJI        CLOUDY    72  65  79 S9        29.93S
HALLOCK        MOSUNNY   73  64  73 NW10G17   29.87R
ROSEAU         MOSUNNY   77  72  83 SW12G17   29.87S
WARROAD        CLOUDY    75  72  88 SW14      29.85F
THIEF RVR FALL CLOUDY    74  68  81 SW12      29.89F
CROOKSTON      PTSUNNY   75  70  83 W6        29.88F
FOSSTON        CLOUDY    72  66  83 S7        29.91F
DETROIT LAKES  CLOUDY    73  66  78 SE14      29.89F
MOORHEAD       CLOUDY    75  66  73 CALM      29.90R
PARK RAPIDS    CLOUDY    72  66  81 S10       29.95R
MAHNOMEN       FAIR      74  67  79 E6        29.87F
$$
MNZ006-009>011-018-025>026-251900-
   North Central Minnesota

CITY           SKY/WX    TMP DP  RH WIND       PRES   REMARKS
BAUDETTE       CLOUDY    79  67  66 S17G23    29.86S
FLAG ISLAND    CLOUDY    73  66  78 S8G16     29.83S
INTL FALLS     CLOUDY    75  65  70 VRB7      29.90F
6HR MIN TEMP:  62; 6HR MAX TEMP:  77;

WASKISH        CLOUDY    73  66  78 SW6       29.92R
BIG FORK       CLOUDY    73  66  78 S6        29.95R
LONGVILLE      CLOUDY    70  64  83 S7        29.96R
GRAND RAPIDS   CLOUDY    72  65  78 S18       29.94F
CRANE LAKE     CLOUDY    73  64  73 S5        29.95S
ORR            CLOUDY    73  63  68 S9        29.92S
COOK           CLOUDY    75  64  69 S10G21    29.95F
WALKER         CLOUDY    70  65  83 S5        29.94R
$$
MNZ012-019>021-037-251900-
   Northeast Minnesota

CITY           SKY/WX    TMP DP  RH WIND       PRES   REMARKS
DULUTH         PTSUNNY   73  64  73 SE9       30.00F
6HR MIN TEMP:  59; 6HR MAX TEMP:  73;

ELY            MOSUNNY   75  61  60 S12       29.97F
HIBBING        CLOUDY    71  66  84 SE6       29.96F
EVELETH        CLOUDY    74  61  64 SE9       29.98F
DULUTH HARBOR  MOSUNNY   66  63  88 NE14      29.99F
TWO HARBORS    CLOUDY    75  66  73 S6        29.99S
SILVER BAY     CLOUDY    73  63  68 S6        29.99F
GRAND MARAIS     N/A     64  57  78 E6        30.03F
G MARAIS ARPRT MOSUNNY   66  55  68 S10       30.07R
$$
MNZ029>031-032-039>041-046>048-054>057-064-251900-
   West Central Minnesota

CITY           SKY/WX    TMP DP  RH WIND       PRES   REMARKS
FERGUS FALLS   CLOUDY    75  66  73 SE10      29.87F
WHEATON        MOSUNNY   79  68  69 E9        29.89F
MORRIS         MOSUNNY   79  68  69 CALM      29.90F
ALEXANDRIA     CLOUDY    74  68  81 SE8       29.95R
ELBOW LAKE     CLOUDY    76  69  80 SE8       29.90F HAZE
WADENA         CLOUDY    72  66  83 S7        29.94S
GLENWOOD       PTSUNNY   75  68  78 SE9       29.95S
APPLETON       PTSUNNY   82  70  65 CALM      29.89S
BENSON         CLOUDY    81  70  69 S6        29.93R
ORTONVILLE     CLOUDY    82  70  65 MISG      29.90F
MADISON        MOSUNNY   88  72  58 NW7       29.90R HX  94
WILLMAR        FAIR      81  72  74 S5        29.94S
$$
MNZ033>034-036-042>043-049>051-058-059-251900-
   Central Minnesota

CITY           SKY/WX    TMP DP  RH WIND       PRES   REMARKS
ST CLOUD       CLOUDY    74  67  78 S10       29.96S
6HR MIN TEMP:  66; 6HR MAX TEMP:  75;

SAUK CENTRE    CLOUDY    74  68  81 SE9       29.94F
PAYNESVILLE    CLOUDY    76  68  75 S10G16    29.95S
AITKIN         CLOUDY    72  64  78 S12       29.95S
PINE RIVER     CLOUDY    70  64  83 S9        29.98S
BRAINERD       CLOUDY    70  64  81 S15G23    29.96F
STAPLES        CLOUDY    70  64  83 S9        29.96R
LONG PRAIRIE   CLOUDY    72  66  83 SE8       29.96R
LITTLE FALLS   CLOUDY    72  63  73 S7        29.95F
LITCHFIELD     CLOUDY    81  72  74 SE8       29.95S
BUFFALO        CLOUDY    77  65  65 S8G20     29.97F
MAPLE LAKE     CLOUDY    77  68  74 S8        29.97S
HUTCHINSON     PTSUNNY   80  72  75 S13G20    29.96S
$$
MNZ037-044-045-052-053-251900-
   East Central Minnesota

CITY           SKY/WX    TMP DP  RH WIND       PRES   REMARKS
PRINCETON      CLOUDY    79  66  65 S12G17    29.97S
MORA           CLOUDY    72  64  78 SE6       29.99S
CAMBRIDGE      PTSUNNY   82  66  57 S14G23    29.94F
RUSH CITY      CLOUDY    75  66  75 SE9       29.98F
MOOSE LAKE     CLOUDY    72  64  78 S5        29.98S
HINCKLEY       CLOUDY    72  66  83 SE9       29.99S
CLOQUET        CLOUDY    73  63  68 SE9       29.99S
MCGREGOR       CLOUDY    72  64  78 S8        29.96F
$$
MNZ071>073-080-081-089-090-097-098-251900-
   Southwest Minnesota

CITY           SKY/WX    TMP DP  RH WIND       PRES   REMARKS
MONTEVIDEO     PTSUNNY   88  73  62 SW7       29.91R HX  96
GRANITE FALLS  MOSUNNY   86  73  65 S7        29.91S HX  93
CANBY          SUNNY     90  67  46 CALM      29.91R HX  93
MARSHALL       SUNNY     88  73  61 SW9       29.91R HX  95
REDWOOD FALLS  PTSUNNY   84  70  62 S15       29.91F
OLIVIA         PTSUNNY   82  70  65 S14       29.92S
PIPESTONE      MOSUNNY   88  73  62 SW17      29.92S HX  96
WINDOM         CLOUDY    84  70  61 S18G25    29.94F
WORTHINGTON    CLOUDY    86  73  65 S18G24    29.95F HX  93
JACKSON        MOSUNNY   82  70  65 S17       29.98S
TRACY          CLOUDY    85  74  68 SW10      29.92R HX  92
SLAYTON        CLOUDY    84  71  64 S15       29.94F
$$
MNZ065>067-074>077-082>085-091>093-251900-
   South Central Minnesota

CITY           SKY/WX    TMP DP  RH WIND       PRES   REMARKS
MANKATO        CLOUDY    79  70  74 S20       29.97F
NEW ULM        PTSUNNY   82  70  65 S20G25    29.93F
ST JAMES       CLOUDY    81  72  74 SE17G24   29.96F
FAIRMONT       MOSUNNY   82  71  69 S22       29.97F
GLENCOE        CLOUDY    79  72  78 SE10G17   29.95F
FARIBAULT      MOSUNNY   75  66  73 S20G29    30.00S
OWATONNA       MOSUNNY   75  66  73 S23G31    30.00F
WASECA         MOSUNNY   77  68  73 S21G28    30.01S
ALBERT LEA     SUNNY     79  68  69 S23G29    30.03F
$$
MNZ078>079-086>088-094>096-251900-
   Southeast Minnesota

CITY           SKY/WX    TMP DP  RH WIND       PRES   REMARKS
ROCHESTER      MOSUNNY   75  67  76 S24G31    30.04F
6HR MIN TEMP:  61; 6HR MAX TEMP:  75; 6HR PCP:  0.26;

RED WING       PTSUNNY   77  64  65 SE10G21   29.99F
STANTON        PTSUNNY   79  65  63 S13G26    29.98R
DODGE CENTER   MOSUNNY   75  64  69 S21G35    30.03F
WINONA         CLOUDY    70  63  78 SE7       30.06F
AUSTIN         MOSUNNY   73  64  73 S14G22    30.06F
PRESTON        MOSUNNY   73  65  76 S22       30.08F
$$
ABBREVIATIONS USED IN REMARKS
   TC - TEMPERATURES IN CELSIUS
  WCI - WIND CHILL INDEX
   HX - HEAT INDEX
  VSB - VISIBILITY
$$




USA.gov is the U.S. government's official web portal to all federal, state and local government web resources and services.